Content
SEND FEEDBACK

Daily
Averages
Monthly
Summary
Turkmenistan

ASHGABAT, TURKMENISTAN


Home > Asia > Turkmenistan
Elevation: 775 feet     Latitude: 37 58N     Longitude: 058 20E

WEATHER
 
SELECT A DAY
Number of Records: 177,170;   Date Range: 3/15/97 - 7/23/14
 
SHARE

PRINT THIS DATA

[ ← Previous Day ]
WEATHER ALMANAC - SEPTEMBER 8, 2013
[ Next Day → ]
[ °C ]   °F
Weather ElementAverageHighLow
Temperature88.8 °F102.2 °F (5:00 pm)75.2 °F (7:00 am)
Dewpoint45.2 °F60 °F (8:00 pm)35.6 °F (1:00 am)
Humidity20.2 %29 % (11:00 am)12 % (2:00 am)
Barometer29.84 in29.89 in (10:00 am)29.79 in (2:00 am)
Wind Speed8.5 mph22.4 mph (10:00 am)
Wind Gust20.1 mph (2:00 am)
Weather ElementAverage
Visibility6.1 mi
Wind DirectionWSW (242.3 °)

Weather ElementTotal
Precipitation---
Cooling Degree Days23.7 (Base 65)
Growing Degree Days38.7 (Base 50)
Averaged from 31 records on September 8, 2013
WEATHER CONDITIONS BREAKOUT
WIND DIRECTION BREAKOUT
WEATHER BY HOUR - SEPTEMBER 8, 2013
[ °C ]   °F
Local TimeTemperatureDewpointHumidityBarometerVisibilityWind DirectionWind SpeedGust SpeedPrecipitationEventsConditions
1:00 AM84.2 °F35.6 °F18 %29.80 in6.2 miSSE (160°)8.9 mphClear
2:00 AM84.0 °F40.0 °F12 %29.79 in6.0 miSSE (160°)8.9 mph
2:00 AM82.4 °F35.6 °F19 %29.80 in6.2 miSSE (160°)8.9 mph20.1 mphClear
3:00 AM80.6 °F35.6 °F20 %29.80 in6.2 miSSE (160°)8.9 mphClear
4:00 AM80.6 °F35.6 °F20 %29.80 in6.2 miSouth (190°)4.5 mphClear
5:00 AM80.0 °F41.0 °F15 %29.79 in6.0 miSouth (170°)6.7 mph
5:00 AM78.8 °F37.4 °F23 %29.80 in6.2 miSouth (170°)6.7 mphClear
6:00 AM78.8 °F35.6 °F21 %29.80 in6.2 miCalmClear
7:00 AM75.2 °F37.4 °F25 %29.83 in6.2 miWNW (290°)4.5 mphClear
8:00 AM76.0 °F47.0 °F24 %29.83 in6.0 miWNW (290°)4.5 mph
8:00 AM80.6 °F37.4 °F21 %29.86 in6.2 miWNW (290°)4.5 mphClear
9:00 AM87.8 °F42.8 °F21 %29.86 in6.2 miWNW (290°)13.4 mphClear
10:00 AM87.8 °F46.4 °F24 %29.89 in6.2 miWNW (290°)22.4 mphClear
11:00 AM90.0 °F55.0 °F21 %29.86 in6.0 miNW (310°)17.9 mph
11:00 AM89.6 °F53.6 °F29 %29.89 in6.2 miNW (310°)17.9 mphClear
12:00 PM93.2 °F50.0 °F23 %29.89 in6.2 miNW (310°)15.7 mphClear
1:00 PM96.8 °F50.0 °F20 %29.89 in6.2 miWNW (300°)13.4 mphClear
2:00 PM98.0 °F56.0 °F16 %29.84 in6.0 miWNW (300°)13.4 mph
2:00 PM98.6 °F51.8 °F21 %29.86 in6.2 miWNW (300°)13.4 mphClear
3:00 PM100.4 °F46.4 °F16 %29.86 in6.2 miNW (320°)8.9 mphClear
4:00 PM100.4 °F46.4 °F16 %29.83 in6.2 miWNW (290°)6.7 mphClear
5:00 PM101.0 °F53.0 °F12 %29.81 in6.0 miWest (280°)6.7 mph
5:00 PM102.2 °F44.6 °F14 %29.83 in6.2 miWest (260°)4.5 mphClear
6:00 PM100.4 °F44.6 °F15 %29.83 in6.2 miSW (230°)6.7 mphClear
7:00 PM98.6 °F44.6 °F16 %29.83 in6.2 miWSW (240°)6.7 mphClear
8:00 PM91.0 °F60.0 °F25 %29.81 in6.0 miWSW (250°)6.7 mph
8:00 PM93.2 °F46.4 °F20 %29.83 in6.2 miWSW (250°)6.7 mphClear
9:00 PM87.8 °F48.2 °F25 %29.86 in6.2 miSW (230°)6.7 mphClear
10:00 PM89.6 °F42.8 °F20 %29.86 in6.2 miSW (230°)4.5 mphClear
11:00 PM81.0 °F54.0 °F28 %29.85 in6.0 miWSW (240°)2.2 mph
11:00 PM84.2 °F46.4 °F27 %29.86 in6.2 miWSW (240°)2.2 mphClear
Hourly data recorded from UTAA, located miles away from Ashgabat, Turkmenistan







STORIES FROM OUR PARTNERS